Current Version              Previous Version:    01  02  03  04  05  06  07  08  09  10  11  12  13  14  15  16  17  18  19  20  21  22  23  24  25  26  27  28  29  30  
   31  32  33  34  35  36  37  38  39  40  41  42  43  44  45  46  47  48  49  50  51  52  53  54  55  56  57  58  59  60  

[Printable]
918
ASUS44 KFWD 251015
RWRTX
NORTH TEXAS HOURLY WEATHER ROUNDUP
NATIONAL WEATHER SERVICE FORT WORTH TX
500 AM CDT FRI JUL 25 2014

NOTE: "FAIR" INDICATES FEW OR NO CLOUDS BELOW 12,000 FEET WITH NO
SIGNIFICANT WEATHER AND/OR OBSTRUCTIONS TO VISIBILITY.

TXZ118-119-251100-
DALLAS/FORT WORTH METROPLEX

CITY           SKY/WX    TMP DP  RH WIND       PRES   REMARKS
DFW AIRPORT    CLEAR     75  69  81 SE6       30.01S
DALLAS LOVE    CLEAR     77  72  84 SE7       30.01S
FTW MEACHAM    CLEAR     77  68  73 S6        30.00F
DAL-EXECUTIVE  CLEAR     74  70  87 SE3       30.01S
FTW-ALLIANCE   CLEAR     72  68  87 CALM      30.00S
FTW-NAS-JRB    CLEAR     79  66  64 S6        30.04F
FTW-SPINKS     CLEAR     71  67  87 CALM      30.03S
ARLINGTON      CLEAR     72  67  84 CALM      30.01S
GRAND PRAIRIE  CLEAR     75  67  74 CALM      30.02F
ADDISON        CLEAR     77  71  82 SE6       30.02F
MESQUITE       CLEAR     72  70  95 SE3       30.02R
LANCASTER      CLEAR     67  64  89 CALM      30.02S
$$

TXZ091>094-102>105-117-120-121-131>134-251100-
NORTH CENTRAL TEXAS

CITY           SKY/WX    TMP DP  RH WIND       PRES   REMARKS
SHRMAN/DENISON CLEAR     74  71  87 SE9       30.03S
GAINESVILLE    CLEAR     71  70  95 CALM      30.04R FOG
BOWIE          CLEAR     70  68  93 CALM      30.02S
BRIDGEPORT     CLEAR     73  66  80 CALM      30.02F
DECATUR        CLEAR     75  67  76 S9        30.02S
DENTON         CLEAR     73  69  87 SE5       30.01S
MCKINNEY       CLEAR     72  70  93 CALM      30.02S
GREENVILLE     CLEAR     72  68  88 E5        30.02S FOG
ROCKWALL       CLEAR     72  71  95 SE5       30.00F
TERRELL        CLEAR     74  72  93 SE3       30.02S
WAXAHACHIE     CLEAR     71  67  89 CALM      30.03S
CLEBURNE       CLEAR     73  70  88 CALM      30.03S
GRANBURY       CLEAR     77  68  75 SE3       30.03S
$$

TXZ083>090-098>101-113>116-127>130-139>142-154-155-251100-
WESTERN NORTH TEXAS

CITY           SKY/WX    TMP DP  RH WIND       PRES   REMARKS
WICHITA FALLS  CLEAR     74  66  76 S7        29.99S
WF-KICKAPOO    CLEAR     74  65  74 SE7       30.00S
VERNON         CLEAR     76  65  70 S6        30.00S
ABILENE        CLEAR     76  65  68 S5        30.04S
ABILENE-DYESS  CLEAR     74  65  73 S3        30.03S
BRECKENRIDGE   PTCLDY    76  65  70 S5        30.02R
GRAHAM         CLEAR     75  65  71 SE3       30.00S
MINERAL WELLS  CLEAR     73  67  81 SE7       30.00S
STEPHENVILLE   CLEAR     73  66  80 CALM      30.06S
COMANCHE       CLEAR     72  67  84 S3        30.03S
BROWNWOOD      MOCLDY    70  66  88 E3        30.03S
COLEMAN        CLEAR     73  65  76 SW5       30.04F
BRADY          CLEAR     73  64  73 CALM      30.05S
$$

TXZ143>147-156>162-174-175-251100-
CENTRAL TEXAS

CITY           SKY/WX    TMP DP  RH WIND       PRES   REMARKS
WACO           CLEAR     73  68  84 E5        30.01R
WACO-MCGREGOR  CLEAR     72  64  78 CALM      30.03R
HILLSBORO      CLEAR     74  67  76 E5        30.01S
CORSICANA      CLEAR     74  69  85 SE5       30.02S
MEXIA          CLEAR     71  68  92 CALM      30.01R
CAMERON        MOCLDY    76  73  88 S3        30.01R
TEMPLE         CLEAR     73  66  78 SE6       30.02R
KILLEEN        CLEAR     75  70  83 S3        30.01S
KILLEEN-SKYLRK CLEAR     73  64  73 CALM      30.01S
FORT HOOD      CLEAR     77  70  79 CALM      30.02R
GATESVILLE     CLEAR     72  68  88 CALM      30.04R
HAMILTON       CLEAR     71  70  96 S3        30.04S
LAMPASAS       CLEAR     73  70  90 CALM      30.02S
$$

TXZ095>097-106>112-122>126-135>138-148>153-164>167-251100-
EAST TEXAS

CITY           SKY/WX    TMP DP  RH WIND       PRES   REMARKS
PARIS          CLEAR     70  64  83 SE7       30.03F
SULPHUR SPRNGS   N/A     71  70  98 E3        30.05S FOG
CLARKSVILLE    CLOUDY    72  71  98 CALM      30.03S
MOUNT PLEASANT   N/A     69  69  99 CALM      30.05S VSB 1/2
GILMER         CLEAR     72  72 100 CALM      30.04S FOG
MINEOLA        CLEAR     70  70 100 CALM      30.03S FOG
TYLER          CLEAR     74  70  87 E3        30.02S
LONGVIEW       CLEAR     70  68  93 CALM      30.02S
MARSHALL       MOCLDY    73  71  93 CALM      30.05R
ATHENS         CLEAR     70  68  94 CALM      30.01S FOG
JACKSONVILLE   CLEAR     74  71  91 CALM      30.05S
HENDERSON      CLEAR     70  70  99 CALM      30.04R FOG
NACOGDOCHES    CLEAR     70  68  94 CALM      30.02S
LUFKIN         CLEAR     75  71  87 CALM      30.01R
$$

SUPPLEMENTAL OBSERVATIONS (CENTRAL)

CITY           SKY/WX    TMP DP  RH WIND       PRES   REMARKS
LAKE TEXOMA      N/A     72  72 100 E1          N/A
PAT MAYSE LAKE   N/A     72  70  94 E7          N/A
ATHENS           N/A     75  72  88 SE6         N/A
PALESTINE        N/A     72  70  94 CALM        N/A
MCGREGOR         N/A     72  66  83 CALM        N/A
TEMPLE           N/A     73  70  88 CALM        N/A
$$

SUPPLEMENTAL OBSERVATIONS (WEST)

CITY           SKY/WX    TMP DP  RH WIND       PRES   REMARKS
MILLERS CREEK    N/A     75  63  64 S5          N/A
POSSUM KINGDOM   N/A     73  64  73 SE5         N/A
GRANBURY         N/A     77  68  73 SE5         N/A
HAMBY            N/A     73  64  73 SE3         N/A
IVIE RESERVOIR   N/A     72  64  78 CALM        N/A
COLORADO BEND    N/A     73  66  78 S2          N/A
$$

SUPPLEMENTAL OBSERVATIONS (EAST)

CITY           SKY/WX    TMP DP  RH WIND       PRES   REMARKS
TEXARKANA        N/A     68  66  94 CALM        N/A
LINDEN           N/A     72  68  88 CALM        N/A
CADDO LAKE       N/A     70  68  94 CALM        N/A
GILMER           N/A     70  66  88 CALM        N/A
HENDERSON        N/A     70  66  88 CALM        N/A
LUFKIN           N/A     72  70  94 MISG        N/A
N SABINE NF      N/A     68  66  94 MISG        N/A
$$

SUPPLEMENTAL OBSERVATIONS ARE A COLLECTION OF AUTOMATED INSTRUMENTS
THAT ARE MAINTAINED BY A VARIETY OF FEDERAL AND STATE AGENCIES.
CERTAIN ELEMENTS...SUCH AS HUMIDITY VALUES AND SUSTAINED WIND
SPEEDS...MAY BE APPROXIMATED.